STARLINK-33908 (63700 NORAD) Tracking and Keplerian Element Data

This shows tracking and keplerian element data for the satellite.

Feedback or suggestion? Click here.




ElementValue
Catalog63700
NameSTARLINK-33908
Epoch Orbit3701
Epoch Day354.09142348
Epoch Year2025
RAAN229.2229
Inclination53.1562
Eccentricity0.0001227
Argument of Perigee76.8446
Mean Anonmoly283.2691
Mean Motion15.30221979
Decay Rate0.0001688
L11 63700U 25087D 25354.09142348 .00016880 00000+0 58034-3 0 9993
L22 63700 53.1562 229.2229 0001227 76.8446 283.2691 15.30221979 37016



Live tracking and technical data element details for STARLINK-33908 (NORAD 63700). STARLINK-33908 can be tracked NOW for your location showing map with azimuth and elevation plus other details from your city location.







IsCatalogInMostPopularTable: catalog: 63700, numindb: 4
Update: records affected: 1



GetName: 63700 STARLINK-33908

Hit Count: updated at: Wed, 15 Apr 2026 01:25:53 GMT